Location: Appeville
(49.3218°N, 1.3427°W)
Time: 01:49:43
(UTC+00:00)

Cosmos 1515 - Pass Details

Date: 08 December 2019
Orbit: 507 x 516 km, 82.5° (Epoch: 25 January)

Event Time Altitude Azimuth Distance (km) Brightness Sun altitude
Exits shadow 06:52:53 - 340° (NNW) 2,350 6.6 -8.5°
Reaches altitude 10° 06:54:26 10° 333° (NNW) 1,747 5.9 -8.3°
Maximum altitude 06:57:55 34° 268° (W) 862 4.4 -7.7°
Drops below altitude 10° 07:01:23 10° 202° (SSW) 1,737 6.4 -7.2°
Sets 07:03:37 0° 194° (SSW) 2,619 7.5 -6.9°
